Location: Chiroubles
(46.1812°N, 4.6660°E)
Time: 05:57:12
(UTC+00:00)

Transit 4A - Pass Details

Date: 09 December 2020
Orbit: 864 x 981 km, 66.8° (Epoch: 16 January)

Event Time Altitude Azimuth Distance (km) Brightness Sun altitude
Rises 11:17:08 0° 325° (NW) 3,691 10.5 20.8°
Reaches altitude 10° 11:20:52 10° 346° (NNW) 2,733 9.8 20.9°
Maximum altitude 11:24:45 16° 24° (NNE) 2,286 9.6 20.9°
Drops below altitude 10° 11:28:34 10° 62° (ENE) 2,697 10.1 20.9°
Sets 11:32:13 0° 83° (E) 3,619 10.9 20.9°
